• Join FlightAware (Why Join?)
  • Login
  • US Flag GB Flag 
09:02 EDT


 

Airport Tracker/Info


-or-


 

Live Flight TrackerFlight Track Log ✈ N449ND ✈ 09-Jan-2014 ✈ KFPR - KFPR

Flight Track Log - Related Links

Times and Time Zones

All times are in EST time to prevent confusion due to time zone crossing. See the N449ND flight status page for this flight to view local times or setup timezone preferences in your user account.

Time Position Orientation Groundspeed Altitude Reporting Facility
EST Latitude Longitude Course Direction KTS MPH feet Rate Location/Type
09:24 27.4925 -80.3403 96° East 87 100 1,200  Level Miami Center
09:25 27.4908 -80.3217 96° East 65 75 1,800 600 Climbing Miami Center
09:26 27.4892 -80.3028 96° East 60 69 2,400 540 Climbing Miami Center
09:27 27.4853 -80.2864 105° East 55 63 2,900 300 Climbing Miami Center
09:28 27.4775 -80.2675 115° Southeast 55 63 3,100  Climbing Miami Center
09:29 27.4619 -80.2997 241° Southwest 74 85 3,000 -60 Descending Miami Center
09:30 27.4589 -80.3442 266° West 122 140 3,000  Level Miami Center
09:31 27.4517 -80.3883 260° West 139 160 3,000 -60 Level Miami Center
09:32 27.4444 -80.4278 258° West 144 166 2,900  Descending Miami Center
09:33 27.4372 -80.4628 257° West 144 166 3,000  Climbing Miami Center
09:34 27.4319 -80.5069 262° West 144 166 2,900 -540 Descending Miami Center
09:35 27.4244 -80.5514 259° West 144 166 2,000 -480 Descending Miami Center
09:36 27.4172 -80.5908 258° West 137 158 2,000  Level Miami Center
09:37 27.4100 -80.6303 258° West 132 152 2,000  Level Miami Center
09:38 27.4197 -80.6517 297° West 106 122 2,100  Climbing Miami Center
09:39 27.4389 -80.6406 27° Northeast 57 66 2,000 -60 Descending Miami Center
09:40 27.4603 -80.6225 37° Northeast 70 81 2,000  Level Miami Center
09:41 27.4794 -80.6092 32° Northeast 80 92 2,000  Level Miami Center
09:42 27.4986 -80.5911 40° Northeast 80 92 2,000 -120 Level Miami Center
09:43 27.4972 -80.5700 94° East 67 77 1,800 -120 Descending Miami Center
09:44 27.4956 -80.5464 95° East 73 84 1,800  Level Miami Center
09:45 27.4964 -80.5208 88° East 68 78 1,800  Level Miami Center
09:46 27.4969 -80.4975 88° East 68 78 1,800 -60 Level Miami Center
09:47 27.4972 -80.4786 89° East 68 78 1,700 -420 Descending Miami Center
09:48 27.4978 -80.4600 88° East 68 78 1,000 -540 Descending Miami Center
09:49 27.4983 -80.4342 89° East 68 78 700 -240 Descending Miami Center
09:50 27.4969 -80.4108 94° East 68 78 600 -180 Descending Miami Center
09:51 27.4975 -80.3875 88° East 68 78 400  Descending Miami Center
09:52 27.4894 -80.3731 122° Southeast 58 67 700 1,260 Climbing Miami Center
09:53 27.4642 -80.3794 193° South 71 82 3,000 600 Climbing Miami Center
09:54 27.4389 -80.3881 197° South 93 107 2,000 -540 Descending Miami Center
09:55 27.4117 -80.3964 195° South 100 115 2,000 3,480 Level Miami Center
09:56 27.4100 -80.3778 96° East 57 66 9,000 3,480 Climbing Miami Center
09:57 27.4147 -80.3592 74° East 56 64 9,000 -3,000 Level Miami Center
09:58 27.4172 -80.3381 82° East 64 74 3,000 -3,000 Descending Miami Center
09:59 27.4422 -80.3367 North 57 66 3,000  Level Miami Center
10:00 27.4711 -80.3561 329° Northwest 96 110 3,000  Level Miami Center
10:01 27.4958 -80.3708 332° Northwest 111 128 3,000 300 Level Miami Center
10:02 27.5206 -80.3881 328° Northwest 111 128 3,700 600 Climbing Miami Center
10:03 27.5450 -80.4100 321° Northwest 105 121 4,300 480 Climbing Miami Center
10:04 27.5697 -80.4225 336° Northwest 100 115 4,700 300 Climbing Miami Center
10:05 27.5944 -80.4350 336° Northwest 94 108 5,000 120 Climbing Miami Center
10:06 27.6192 -80.4522 328° Northwest 100 115 5,000  Level Miami Center
10:07 27.6456 -80.4764 321° Northwest 105 121 5,000  Level Miami Center
10:08 27.6767 -80.4914 337° Northwest 110 127 5,100  Climbing Miami Center
10:09 27.6875 -80.4731 56° Northeast 52 60 5,000 -60 Descending Miami Center
10:10 27.6647 -80.4606 154° Southeast 48 55 5,000  Level Miami Center
10:11 27.6706 -80.4794 289° West 28 32 5,000  Level Miami Center
10:12 27.6950 -80.5014 322° Northwest 93 107 5,000  Level Miami Center
10:13 27.6936 -80.4803 94° East 58 67 5,000  Level Miami Center
10:14 27.6772 -80.4608 134° Southeast 68 78 5,000  Level Miami Center
10:15 27.6586 -80.4581 172° South 81 93 5,000  Level Miami Center
10:16 27.6725 -80.4819 303° West 72 83 5,000  Level Miami Center
10:17 27.6972 -80.4967 332° Northwest 86 99 5,000  Level Miami Center
10:18 27.6875 -80.4731 115° Southeast 29 33 5,000  Level Miami Center
10:19 27.6733 -80.4514 126° Southeast 74 85 5,000  Level Miami Center
10:20 27.6583 -80.4650 219° Southwest 64 74 5,000 -60 Level Miami Center
10:21 27.6808 -80.4892 316° Northwest 40 46 4,900  Descending Miami Center
10:22 27.7053 -80.5133 319° Northwest 101 116 5,000  Climbing Miami Center
10:23 27.7317 -80.5353 324° Northwest 114 131 5,000 -300 Level Miami Center
10:24 27.7542 -80.5619 314° West 119 137 4,500 -780 Descending Miami Center
10:25 27.7617 -80.5903 287° West 113 130 3,500 -840 Descending Miami Center
10:26 27.7297 -80.6103 209° Southwest 106 122 2,900 -360 Descending Miami Center
10:27 27.7156 -80.5936 134° Southeast 75 86 2,800 -360 Descending Miami Center
10:28 27.7078 -80.5722 112° Southeast 70 81 2,200 -720 Descending Miami Center
10:29 27.7000 -80.5531 115° Southeast 75 86 1,400 -540 Descending Miami Center
10:30 27.6922 -80.5317 112° Southeast 75 86 1,200 -120 Descending Miami Center
10:31 27.6844 -80.5103 112° Southeast 70 81 1,200  Level Miami Center
10:32 27.6786 -80.4914 109° East 70 81 1,200 -240 Level Miami Center
10:33 27.6728 -80.4725 109° East 70 81 800 -420 Descending Miami Center
10:34 27.6650 -80.4536 115° Southeast 70 81 400 -240 Descending Miami Center
10:35 27.6572 -80.4322 112° Southeast 70 81 400 420 Level Miami Center
10:36 27.6514 -80.4108 107° East 70 81 1,300 720 Climbing Miami Center
10:37 27.6475 -80.3944 105° East 65 75 1,900 540 Climbing Miami Center
10:38 27.6439 -80.3778 104° East 60 69 2,400 540 Climbing Miami Center
10:39 27.6422 -80.3592 96° East 60 69 3,000 300 Climbing Miami Center
10:40 27.6367 -80.3308 102° East 76 87 3,000  Level Miami Center
10:41 27.6289 -80.3094 112° Southeast 76 87 3,000  Level Miami Center
10:42 27.5997 -80.3061 174° South 81 93 3,000  Level Miami Center
10:43 27.5725 -80.3031 174° South 104 120 3,000  Level Miami Center
10:44 27.5433 -80.3092 191° South 104 120 3,000  Level Miami Center
10:45 27.5094 -80.3269 205° Southwest 110 127 3,000  Level Miami Center
10:46 27.4797 -80.3400 201° Southwest 115 132 3,000  Level Miami Center
10:47 27.4542 -80.3672 223° Southwest 120 138 3,000  Level Miami Center
10:48 27.4367 -80.3972 237° Southwest 132 152 3,000  Level Miami Center
10:49 27.4314 -80.4417 262° West 132 152 3,000  Level Miami Center
10:50 27.4303 -80.4906 269° West 142 163 3,000  Level Miami Center
10:51 27.4250 -80.5325 262° West 142 163 3,000  Level Miami Center
10:52 27.4197 -80.5744 262° West 142 163 3,000  Level Miami Center
10:53 27.4125 -80.6094 257° West 142 163 3,000  Level Miami Center
10:54 27.4283 -80.6450 297° West 142 163 3,000  Level Miami Center
10:55 27.4536 -80.6317 25° Northeast 76 87 3,000 -420 Level Miami Center
10:56 27.4753 -80.6114 40° Northeast 77 89 2,200 -480 Descending Miami Center
10:57 27.4944 -80.5956 36° Northeast 84 97 2,100 -240 Descending Miami Center
10:58 27.4992 -80.5725 77° East 84 97 1,800 -240 Descending Miami Center
10:59 27.5081 -80.5469 69° East 79 91 1,700  Descending Miami Center
11:00 27.5003 -80.5233 110° East 68 78 1,900  Climbing Miami Center
11:01 27.4989 -80.4997 94° East 68 78 1,800 -120 Descending Miami Center
11:02 27.4994 -80.4789 88° East 68 78 1,700 -360 Descending Miami Center
11:03 27.4978 -80.4553 95° East 68 78 1,100 -540 Descending Miami Center
11:04 27.4986 -80.4319 88° East 68 78 700 -300 Descending Miami Center
11:05 27.4969 -80.4061 94° East 68 78 500 1,140 Descending Miami Center
11:06 27.4975 -80.3850 88° East 76 87 3,000 2,460 Climbing Miami Center